Showing default

IRIDIUM 165, 43572

Orbit data source: Space-Track

IRIDIUM 165, 43572 is a payload satellite owned by Iridium (US) in LEO that was launched on Wed, 25 Jul 2018 UTC via an FALCON 9 launch vehicle from the Air Force Western Test Range (AFWTR). Payloads include a variety of satellites, spacecraft, and rockets equipped with specific instruments for various scientific and technological missions. These include communications satellites like Starlink; space stations such as the ISS; scientific satellites like the Hubble; Earth observation satellites from companies like Planet Labs, Umbra, and HawkEye 360; GPS; miniature CubeSats for education and research; and military/defense satellites.

Loading next visibility...
IRIDIUM 165 details
Identifier
43572, 2018-061D
Orbit
LEO
Last TLE update9 hours ago
Origin
Flag of USIridium (US)
ManufacturerNGIS SSG Gilbert
MissionOperational Commercial Communications
Bus & MotorELITEBUS, Unknown motor
Mass860 kg wet, 700 kg dry
Launch date (UTC)
2018-07-25 (6 years ago)
Launch vehicle
FALCON 9
Launch site
Air Force Western Test Range (AFWTR)
Object type
Payload
Rocket body
Debris
Shape & HBRTrap Box + 2 Pan, 9.4 m
Radar Cross Section14.423 m², Large (>1 m²)

Expand to show TLE details & history

TLE from 9 hours ago
0 IRIDIUM 165
1 43572U 18061D   24361.51294549 -.00000113  00000-0 -47257-4 0  9998
2 43572  86.3966 281.4543 0002130  84.4986 275.6452 14.34216834336327
Epoch: 2024-12-26T12:18Z
Definitive object data (Epoch: 2024-12-26T12:18:38.49Z)
Latitude-0.00009°
Longitude1.30265°
Altitude780.572 km
Speed7.464 km/s
True Right ascension18h 45m 49s
True Declination0° 00' 00"
Sunlit
Object was in daylight at TLE epoch
Visualization TLE readout
Latitude48.98302°
Longitude5.28262°
Altitude784.226 km
Speed7.467 km/s
Apparent Right ascension13h 12m 34s
Apparent Declination39° 26' 54"
Sunlit
Object is in daylight
Visualization observer readout
Local Sidereal Time20:17:31
Azimuth310.171° NW
Elevation14.01°
Doppler factor1
Orbital elements
Apogee altitude776.158 km
Perigee altitude773.111 km
Semi-major axis7,152.772 km
Eccentricity0.000213
Inclination86.3966°
RAAN281.4543°
Arg. of periapsis84.4986°
True anomaly275.62091°
Mean anomaly275.6452°
Eccentric anomaly275.63305°
Mean motion3.58783 °/min
BSTAR-0.000047257
Orbital period100.34 mins
Loading maneuver chart data...
Loading historical data...
Loading historical data...
Loading historical data...
Loading historical data...
Loading historical data...
Loading historical data...
Loading historical data...

IRIDIUM 165 Visibility forecast

Observer location: undefined°, undefined

Span
Click to sort rows by Start time (UTC) header in descending order
Start Az.
Max El. time (UTC)
Max El. Az.
Max El.
End time (UTC)
End Az.
8 mins2024-12-27 07:19:37.073Z346.281° N2024-12-27 07:22:37.073Z283.722° WNW42.046°2024-12-27 07:27:37.073Z190.636° SSW
7 mins2024-12-27 18:35:37.073Z127.95° SE2024-12-27 18:38:37.073Z76.574° E25.691°2024-12-27 18:42:37.073Z25.527° NE
7 mins2024-12-27 20:15:37.073Z227.844° WSW2024-12-27 20:18:37.073Z273.522° WNW26.407°2024-12-27 20:22:37.073Z335.256° NNW
|